Location: Neuvy Saint Sepulchre
(46.5953°N, 1.8122°E)
Time: 14:46:40
(UTC+01:00)

ISS - Pass Details

Date: 21 November 2019
Orbit: 411 x 421 km, 51.6° (Epoch: 14 December)

Event Time Altitude Azimuth Distance (km) Brightness Sun altitude
Rises 19:10:30 0° 207° (SSW) 2,344 0.5 -19.7°
Reaches altitude 10° 19:12:52 10° 191° (S) 1,488 -0.8 -20.1°
Enters shadow 19:14:11 17° 172° (S) 1,121 -1.6 -20.4°
